Regional Weather Roundup
Issued by NWS

Home | Current Version | Previous Version | Graphics & Text | Print | Product List | Glossary On
Versions: 1 2 3 4 5 6 7 8 9 10 11 12 13 14 15 16 17 18 19 20 21 22 23 24 25 26 27 28 29 30 31 32 33 34 35 36 37 38 39 40 41 42 43 44 45 46 47 48 49 50
000
ASUS43 KLMK 261402
RWRKY
KENTUCKY REGIONAL WEATHER ROUNDUP
NATIONAL WEATHER SERVICE LOUISVILLE KY
900 AM EST FRI DEC 26 2014

NOTE "FAIR" INDICATES FEW OR NO CLOUDS BELOW 12,000 FEET
WITH NO SIGNIFICANT WEATHER AND/OR OBSTRUCTIONS TO VISIBILITY.

KYZ001>023-026-027-061>063-070>075-261500-
WESTERN AND SOUTH CENTRAL KENTUCKY

CITY           SKY/WX    TMP DP  RH WIND       PRES   REMARKS
PADUCAH        PTCLDY    42  35  76 S9        30.20R
HENDERSON      CLEAR     39  34  81 S9        30.21S WCI  33
OWENSBORO      CLEAR     37  35  92 S10       30.24S WCI  30
HOPKINSVILLE   PTCLDY    36  33  90 SE7       30.25S WCI  31
BOWLING GREEN  CLEAR     31  28  89 CALM      30.29R
GLASGOW        NOT AVBL
$$

KYZ024-025-028>034-038-045-046-053-261500-
NORTH CENTRAL KENTUCKY

CITY           SKY/WX    TMP DP  RH WIND       PRES   REMARKS
LOUISVILLE/SDF PTCLDY    35  32  88 SE7       30.25R WCI  29
LOUISVILLE/LOU CLEAR     37  33  85 S6        30.26R WCI  32
FORT KNOX      CLEAR     33  31  93 S7        30.24R WCI  27
$$

KYZ035>037-039>044-047>052-055>060-089>105-261500-
NORTHEAST KENTUCKY

CITY           SKY/WX    TMP DP  RH WIND       PRES   REMARKS
LEXINGTON      CLEAR     34  31  88 S10       30.28R WCI  26
COVINGTON      PTCLDY    35  29  78 S9        30.23S WCI  28
FRANKFORT      CLEAR     33  30  88 S8        30.26R WCI  26
$$

KYZ054-064>069-076>088-106>120-261500-
SOUTHEAST KENTUCKY

CITY           SKY/WX    TMP DP  RH WIND       PRES   REMARKS
JACKSON        SUNNY     32  29  88 S3        30.31R
LONDON         MOSUNNY   31  26  82 CALM      30.33R
SOMERSET       NOT AVBL
MIDDLESBORO    MOSUNNY   27  26  96 CALM      30.35R
MONTICELLO     SUNNY     29  27  92 CALM      30.35R
$$



USA.gov is the U.S. government's official web portal to all federal, state and local government web resources and services.